Tracking 30070 objects as of 15-Jan-2025
HD Live streaming from Space Station
objects crossing your sky now

SL-19 DEB

Track SL-19 DEB now!
10-day predictions


NORAD ID: 24679
Int'l Code: 1994-085Y
Perigee: 1,847.1 km
Apogee: 2,165.1 km
Inclination: 65.0 °
Period: 127.2 minutes
Semi major axis: 8377 km
RCS: 0.047 m2 (small)
Launch date: December 26, 1994
Source: Commonwealth of Independent States (former USSR) (CIS)
Launch site: TYURATAM MISSILE AND SPACE COMPLEX (TTMTR)

Note: This is SATELLITE DEBRIS
Your satellite tracking list
Your tracking list is empty




NASA's NSSDC Master Catalog

Two Line Element Set (TLE):
1 24679U 94085Y   25014.38965824 -.00000065  00000-0 -59061-3 0  9998
2 24679  64.9883   1.3200 0189803 211.4253 304.2397 11.32296618407458
Source of the keplerian elements: AFSPC